Home   Weather   42°59'N, 96°02'W   Past weeks
Flag for USA

Past Weather in 42°59'N, 96°02'W, USA — Yesterday and Last 2 Weeks

Now
19 °F

Partly sunny.


Feels Like: 11 °F
Forecast: 20 / 4 °F
Wind: 6 mph from North

Location: Foss Field

Current Time: Feb 21, 2019 at 4:35:06 pm

Latest Report: Feb 21, 2019 at 3:56 pm


Visibility: 10 mi

Pressure: 30.26 "Hg

Humidity: 68%

Dew Point: 10 °F

Location of 42°59'N, 96°02'WLocation

Past Weather in 42°59'N, 96°02'W — Graph

°F

42°59'N, 96°02'W Temperature Yesterday

Maximum temperature yesterday: 22 °F (at 10:18 am)
Minimum temperature yesterday: 8 °F (at 11:56 pm)
Average temperature yesterday: 18 °F

High & Low Weather Summary for the Past Weeks

 TemperatureHumidityPressure
High27 °F (Feb 13, 10:56 pm)92% (Feb 11, 1:56 am)30.82 "Hg (Feb 11, 1:56 am)
Low-12 °F (Feb 8, 6:56 am)57% (Feb 8, 3:56 pm)29.49 "Hg (Feb 14, 2:56 am)
Average11 °F78%30.14 "Hg
* Reported Feb 6 2:56 pm — Feb 21 2:56 pm, 42°59'N, 96°02'W. Weather by CustomWeather, © 2019

Note: Actual official high and low records may vary slightly from our data, if they occured in-between our weather recording intervals... More about our weather records

Advertising

42°59'N, 96°02'W Weather History for the Previous 24 Hours

Scroll right to see more
 ConditionsComfort  
Time TempWeatherWind HumidityBarometerVisibility
2:56 pm
Thu, Feb 21
17 °FPartly sunny.7 mph70%30.26 "Hg9 mi
1:56 pm18 °FPartly sunny.5 mph68%30.27 "Hg10 mi
12:56 pm16 °FHigh level clouds.3 mph71%30.27 "Hg10 mi
10:56 am10 °FScattered clouds.5 mph76%30.27 "Hg10 mi
9:56 am9 °FScattered clouds.7 mph80%30.25 "Hg10 mi
8:56 am3 °FPassing clouds.3 mph87%30.21 "Hg10 mi
7:56 am-2 °FLight snow. Ice fog.3 mph91%30.19 "Hg6 mi
6:56 am2 °FClear.3 mph88%30.17 "Hg10 mi
5:56 am2 °FLight snow. Clear.5 mph83%30.12 "Hg8 mi
4:56 am3 °FLight snow. Ice fog.8 mph87%30.07 "Hg6 mi
3:56 am4 °FIce fog.12 mph88%30.05 "Hg4 mi
3:35 am4 °FIce fog.10 mph88%29.95 "Hg5 mi
3:19 am4 °FPassing clouds.9 mph88%29.95 "Hg7 mi
2:56 am4 °FClear.10 mph88%30.04 "Hg10 mi
1:56 am7 °FClear.9 mph83%30.00 "Hg10 mi
12:56 am6 °FClear.12 mph87%29.95 "Hg9 mi
11:56 pm
Wed, Feb 20
8 °FClear.12 mph83%29.93 "Hg9 mi
10:56 pm9 °FClear.9 mph88%29.91 "Hg9 mi
9:56 pm10 °FClear.8 mph84%29.89 "Hg10 mi
8:56 pm11 °FClear.12 mph81%29.84 "Hg10 mi
7:56 pm13 °FPassing clouds.12 mph81%29.83 "Hg10 mi
6:56 pm14 °FLight snow. Ice fog.9 mph80%29.80 "Hg9 mi
5:56 pm16 °FLight snow. Mostly cloudy.9 mph80%29.75 "Hg6 mi
5:25 pm17 °FLight snow. Mostly cloudy.12 mph80%29.66 "Hg8 mi
4:56 pm18 °FLight snow. More clouds than sun.10 mph77%29.70 "Hg7 mi
4:17 pm19 °FLight snow. Mostly cloudy.14 mph77%29.62 "Hg5 mi
Weather by CustomWeather, © 2019

See weather overview